Time,TemperatureF,DewpointF,PressureIn,WindDirection,WindDirectionDegrees,WindSpeedMPH,WindSpeedGustMPH,Humidity,HourlyPrecipIn,Conditions,Clouds,dailyrainin,SoftwareType,DateUTC
2013-11-27 00:02:00,22.6,15.3,30.48,WNW,293,7.0,7.0,73,0.00,,,0.23,meteohub,2013-11-27 07:02:00,
2013-11-27 00:08:00,22.6,15.3,30.48,WNW,293,5.0,8.0,73,0.00,,,0.00,meteohub,2013-11-27 07:08:00,
2013-11-27 00:14:00,22.6,15.3,30.48,WNW,293,2.0,8.0,73,0.00,,,0.00,meteohub,2013-11-27 07:14:00,
2013-11-27 00:20:00,22.6,15.3,30.48,WNW,293,4.0,7.0,73,0.00,,,0.00,meteohub,2013-11-27 07:20:00,
2013-11-27 00:26:00,22.6,15.3,30.48,WNW,293,5.0,7.0,73,0.00,,,0.00,meteohub,2013-11-27 07:26:00,
2013-11-27 00:32:00,22.5,15.1,30.48,WNW,293,7.0,9.0,73,0.00,,,0.00,meteohub,2013-11-27 07:32:00,
2013-11-27 00:38:00,22.5,15.1,30.48,WNW,293,4.0,9.0,73,0.00,,,0.00,meteohub,2013-11-27 07:38:00,
2013-11-27 00:44:00,22.8,15.1,30.48,WNW,291,6.0,9.0,72,0.00,,,0.00,meteohub,2013-11-27 07:44:00,
2013-11-27 00:50:00,22.6,14.7,30.47,WNW,291,6.0,9.0,71,0.00,,,0.00,meteohub,2013-11-27 07:50:00,
2013-11-27 00:56:00,22.8,15.1,30.48,WNW,291,3.0,9.0,72,0.00,,,0.00,meteohub,2013-11-27 07:56:00,
2013-11-27 01:02:00,23.4,15.6,30.48,WNW,286,3.0,8.0,72,0.00,,,0.00,meteohub,2013-11-27 08:02:00,
2013-11-27 01:08:00,23.4,14.7,30.47,WNW,286,5.0,10.0,69,0.00,,,0.00,meteohub,2013-11-27 08:08:00,
2013-11-27 01:14:00,23.5,15.8,30.47,WNW,285,6.0,10.0,72,0.00,,,0.00,meteohub,2013-11-27 08:14:00,
2013-11-27 01:21:00,23.5,15.3,30.47,WSW,245,12.0,14.0,70,0.00,,,0.00,meteohub,2013-11-27 08:21:00,
2013-11-27 01:27:00,23.5,15.8,30.47,SW,232,10.0,14.0,72,0.00,,,0.00,meteohub,2013-11-27 08:27:00,
2013-11-27 01:32:00,24.6,16.5,30.46,SW,234,12.0,16.0,71,0.00,,,0.00,meteohub,2013-11-27 08:32:00,
2013-11-27 01:39:00,25.2,16.3,30.46,SW,221,8.0,18.0,69,0.00,,,0.00,meteohub,2013-11-27 08:39:00,
2013-11-27 01:45:00,25.0,16.5,30.46,SSW,212,13.0,18.0,70,0.00,,,0.00,meteohub,2013-11-27 08:45:00,
2013-11-27 01:51:00,25.2,16.7,30.46,SW,223,9.0,18.0,70,0.00,,,0.00,meteohub,2013-11-27 08:51:00,
2013-11-27 01:57:00,25.3,16.5,30.46,WSW,242,9.0,20.0,69,0.00,,,0.00,meteohub,2013-11-27 08:57:00,
2013-11-27 02:03:00,25.0,16.3,30.46,SW,222,9.0,21.0,69,0.00,,,0.00,meteohub,2013-11-27 09:03:00,
2013-11-27 02:09:00,24.6,16.2,30.46,SSW,208,10.0,21.0,70,0.00,,,0.00,meteohub,2013-11-27 09:09:00,
2013-11-27 02:15:00,24.6,16.2,30.46,SW,224,16.0,21.0,70,0.00,,,0.00,meteohub,2013-11-27 09:15:00,
2013-11-27 02:21:00,24.6,16.2,30.45,SW,219,11.0,22.0,70,0.00,,,0.00,meteohub,2013-11-27 09:21:00,
2013-11-27 02:27:00,24.6,16.2,30.46,SW,219,11.0,22.0,70,0.00,,,0.00,meteohub,2013-11-27 09:27:00,
2013-11-27 02:33:00,24.4,15.8,30.45,SW,230,10.0,18.0,69,0.00,,,0.00,meteohub,2013-11-27 09:33:00,
2013-11-27 02:39:00,24.6,16.2,30.45,SSW,200,14.0,22.0,70,0.00,,,0.00,meteohub,2013-11-27 09:39:00,
2013-11-27 02:45:00,24.6,16.5,30.45,SW,233,7.0,22.0,71,0.00,,,0.00,meteohub,2013-11-27 09:45:00,
2013-11-27 02:51:00,24.6,16.2,30.45,SW,226,20.0,22.0,70,0.00,,,0.00,meteohub,2013-11-27 09:51:00,
2013-11-27 02:57:00,24.6,16.5,30.45,SW,221,15.0,23.0,71,0.00,,,0.00,meteohub,2013-11-27 09:57:00,
2013-11-27 03:03:00,24.4,16.3,30.44,SW,221,10.0,23.0,71,0.00,,,0.00,meteohub,2013-11-27 10:03:00,
2013-11-27 03:09:00,24.3,16.5,30.44,SW,220,12.0,23.0,72,0.00,,,0.00,meteohub,2013-11-27 10:09:00,
2013-11-27 03:15:00,24.4,16.3,30.44,SW,223,16.0,22.0,71,0.00,,,0.00,meteohub,2013-11-27 10:15:00,
2013-11-27 03:21:00,24.6,16.5,30.44,SW,234,11.0,24.0,71,0.00,,,0.00,meteohub,2013-11-27 10:21:00,
2013-11-27 03:27:00,24.8,16.3,30.43,SW,229,17.0,24.0,70,0.00,,,0.00,meteohub,2013-11-27 10:27:00,
2013-11-27 03:33:00,24.8,16.3,30.44,SW,224,12.0,23.0,70,0.00,,,0.00,meteohub,2013-11-27 10:33:00,
2013-11-27 03:39:00,24.6,16.2,30.44,SW,221,13.0,25.0,70,0.00,,,0.00,meteohub,2013-11-27 10:39:00,
2013-11-27 03:45:00,24.4,16.3,30.44,SW,222,11.0,23.0,71,0.00,,,0.00,meteohub,2013-11-27 10:45:00,
2013-11-27 03:51:00,24.4,16.3,30.44,SW,220,17.0,22.0,71,0.00,,,0.00,meteohub,2013-11-27 10:51:00,
2013-11-27 03:57:00,24.3,16.2,30.44,SSW,207,9.0,22.0,71,0.00,,,0.00,meteohub,2013-11-27 10:57:00,
2013-11-27 04:03:00,24.6,16.5,30.44,SSW,201,15.0,22.0,71,0.00,,,0.00,meteohub,2013-11-27 11:03:00,
2013-11-27 04:09:00,24.6,16.2,30.44,SW,222,13.0,22.0,70,0.00,,,0.00,meteohub,2013-11-27 11:09:00,
2013-11-27 04:15:00,24.8,16.3,30.44,SW,214,10.0,21.0,70,0.00,,,0.00,meteohub,2013-11-27 11:15:00,
2013-11-27 04:21:00,25.0,16.3,30.43,SW,218,6.0,16.0,69,0.00,,,0.00,meteohub,2013-11-27 11:21:00,
2013-11-27 04:27:00,25.0,16.5,30.43,West,270,19.0,19.0,70,0.00,,,0.00,meteohub,2013-11-27 11:27:00,
2013-11-27 04:33:00,25.0,16.3,30.43,SW,214,10.0,21.0,69,0.00,,,0.00,meteohub,2013-11-27 11:33:00,
2013-11-27 04:39:00,24.8,16.3,30.43,SW,220,9.0,21.0,70,0.00,,,0.00,meteohub,2013-11-27 11:39:00,
2013-11-27 04:45:00,25.0,16.3,30.43,SSW,212,19.0,20.0,69,0.00,,,0.00,meteohub,2013-11-27 11:45:00,
2013-11-27 04:51:00,25.2,16.3,30.43,SW,220,8.0,22.0,69,0.00,,,0.00,meteohub,2013-11-27 11:51:00,
2013-11-27 04:58:00,25.2,16.3,30.44,SW,218,8.0,22.0,69,0.00,,,0.00,meteohub,2013-11-27 11:58:00,
2013-11-27 05:04:00,25.0,16.3,30.43,SW,215,12.0,22.0,69,0.00,,,0.00,meteohub,2013-11-27 12:04:00,
2013-11-27 05:10:00,24.6,16.0,30.43,SW,225,11.0,19.0,69,0.00,,,0.00,meteohub,2013-11-27 12:10:00,
2013-11-27 05:16:00,24.6,16.0,30.42,SSW,207,7.0,19.0,69,0.00,,,0.00,meteohub,2013-11-27 12:16:00,
2013-11-27 05:22:00,24.1,15.8,30.42,WSW,243,10.0,19.0,70,0.00,,,0.00,meteohub,2013-11-27 12:22:00,
2013-11-27 05:28:00,23.4,15.1,30.42,WSW,237,5.0,14.0,70,0.00,,,0.00,meteohub,2013-11-27 12:28:00,
2013-11-27 05:34:00,22.6,14.4,30.42,WSW,237,4.0,11.0,70,0.00,,,0.00,meteohub,2013-11-27 12:34:00,
2013-11-27 05:40:00,21.7,13.5,30.42,WSW,237,6.0,11.0,70,0.00,,,0.00,meteohub,2013-11-27 12:40:00,
2013-11-27 05:46:00,21.6,14.0,30.43,WSW,241,3.0,9.0,72,0.00,,,0.00,meteohub,2013-11-27 12:46:00,
2013-11-27 05:52:00,21.4,13.8,30.43,WSW,241,5.0,9.0,72,0.00,,,0.00,meteohub,2013-11-27 12:52:00,
2013-11-27 05:58:00,21.4,14.0,30.43,WSW,243,5.0,8.0,73,0.00,,,0.00,meteohub,2013-11-27 12:58:00,
2013-11-27 06:04:00,21.9,14.4,30.43,WSW,246,8.0,8.0,72,0.00,,,0.00,meteohub,2013-11-27 13:04:00,
2013-11-27 06:10:00,22.5,14.5,30.43,WSW,246,3.0,10.0,71,0.00,,,0.00,meteohub,2013-11-27 13:10:00,
2013-11-27 06:16:00,22.1,14.2,30.42,WSW,249,2.0,10.0,71,0.00,,,0.00,meteohub,2013-11-27 13:16:00,
2013-11-27 06:22:00,22.3,14.7,30.42,WSW,249,5.0,10.0,72,0.00,,,0.00,meteohub,2013-11-27 13:22:00,
2013-11-27 06:28:00,22.8,14.5,30.42,WSW,237,4.0,10.0,70,0.00,,,0.00,meteohub,2013-11-27 13:28:00,
2013-11-27 06:34:00,22.1,13.5,30.42,WSW,238,6.0,11.0,69,0.00,,,0.00,meteohub,2013-11-27 13:34:00,
2013-11-27 06:40:00,21.7,13.8,30.41,WSW,251,6.0,9.0,71,0.00,,,0.00,meteohub,2013-11-27 13:40:00,
2013-11-27 06:46:00,21.7,14.2,30.41,West,276,9.0,10.0,72,0.00,,,0.00,meteohub,2013-11-27 13:46:00,
2013-11-27 06:52:00,21.7,13.8,30.41,West,276,5.0,10.0,71,0.00,,,0.00,meteohub,2013-11-27 13:52:00,
2013-11-27 06:58:00,21.7,14.2,30.41,West,276,5.0,9.0,72,0.00,,,0.00,meteohub,2013-11-27 13:58:00,
2013-11-27 07:04:00,21.7,14.2,30.41,West,276,2.0,9.0,72,0.00,,,0.00,meteohub,2013-11-27 14:04:00,
2013-11-27 07:10:00,21.9,14.4,30.41,West,276,0.0,5.0,72,0.00,,,0.00,meteohub,2013-11-27 14:10:00,
2013-11-27 07:16:00,22.3,14.4,30.41,West,276,0.0,5.0,71,0.00,,,0.00,meteohub,2013-11-27 14:16:00,
2013-11-27 07:22:00,22.6,14.7,30.41,West,276,2.0,4.0,71,0.00,,,0.00,meteohub,2013-11-27 14:22:00,
2013-11-27 07:28:00,23.7,15.1,30.41,West,276,1.0,5.0,69,0.00,,,0.00,meteohub,2013-11-27 14:28:00,
2013-11-27 07:34:00,24.4,15.1,30.41,West,276,4.0,5.0,67,0.00,,,0.00,meteohub,2013-11-27 14:34:00,
2013-11-27 07:40:00,25.2,15.4,30.42,West,261,4.0,8.0,66,0.00,,,0.00,meteohub,2013-11-27 14:40:00,
2013-11-27 07:46:00,25.7,16.0,30.42,SSW,208,2.0,10.0,66,0.00,,,0.00,meteohub,2013-11-27 14:46:00,
2013-11-27 07:52:00,26.4,16.3,30.42,SSW,209,4.0,10.0,65,0.00,,,0.00,meteohub,2013-11-27 14:52:00,
2013-11-27 07:58:00,27.0,16.3,30.41,SSW,210,2.0,10.0,64,0.00,,,0.00,meteohub,2013-11-27 14:58:00,
2013-11-27 08:04:00,27.3,16.3,30.42,SW,235,8.0,8.0,63,0.00,,,0.00,meteohub,2013-11-27 15:04:00,
2013-11-27 08:10:00,27.1,16.5,30.42,SW,214,4.0,13.0,64,0.00,,,0.00,meteohub,2013-11-27 15:10:00,
2013-11-27 08:16:00,27.3,16.3,30.42,SW,214,2.0,13.0,63,0.00,,,0.00,meteohub,2013-11-27 15:16:00,
2013-11-27 08:22:00,27.9,16.9,30.42,South,188,5.0,13.0,63,0.00,,,0.00,meteohub,2013-11-27 15:22:00,
2013-11-27 08:28:00,28.0,17.1,30.41,SSW,200,5.0,13.0,63,0.00,,,0.00,meteohub,2013-11-27 15:28:00,
2013-11-27 08:35:00,28.6,17.2,30.41,SSW,200,7.0,13.0,62,0.00,,,0.00,meteohub,2013-11-27 15:35:00,
2013-11-27 08:41:00,29.1,17.4,30.41,SW,214,7.0,10.0,61,0.00,,,0.00,meteohub,2013-11-27 15:41:00,
2013-11-27 08:47:00,29.5,17.2,30.41,SW,216,7.0,10.0,60,0.00,,,0.00,meteohub,2013-11-27 15:47:00,
2013-11-27 08:52:00,29.7,17.4,30.41,SSW,193,8.0,11.0,60,0.00,,,0.00,meteohub,2013-11-27 15:52:00,
2013-11-27 08:59:00,29.5,17.8,30.41,SSW,212,7.0,11.0,61,0.00,,,0.00,meteohub,2013-11-27 15:59:00,
2013-11-27 09:05:00,29.5,17.8,30.41,SSW,193,11.0,14.0,61,0.00,,,0.00,meteohub,2013-11-27 16:05:00,
2013-11-27 09:11:00,29.8,18.0,30.41,SW,223,8.0,16.0,61,0.00,,,0.00,meteohub,2013-11-27 16:11:00,
2013-11-27 09:17:00,29.8,18.5,30.40,SSW,193,11.0,16.0,62,0.00,,,0.00,meteohub,2013-11-27 16:17:00,
2013-11-27 09:23:00,29.3,18.3,30.40,South,188,9.0,15.0,63,0.00,,,0.00,meteohub,2013-11-27 16:23:00,
2013-11-27 09:29:00,29.5,18.5,30.40,South,190,8.0,15.0,63,0.00,,,0.00,meteohub,2013-11-27 16:29:00,
2013-11-27 09:35:00,29.3,18.3,30.40,SSW,200,9.0,16.0,63,0.00,,,0.00,meteohub,2013-11-27 16:35:00,
2013-11-27 09:41:00,29.7,18.7,30.40,SSW,199,7.0,15.0,63,0.00,,,0.00,meteohub,2013-11-27 16:41:00,
2013-11-27 09:47:00,29.7,18.7,30.40,South,190,6.0,15.0,63,0.00,,,0.00,meteohub,2013-11-27 16:47:00,
2013-11-27 09:53:00,29.7,18.7,30.40,South,190,9.0,15.0,63,0.00,,,0.00,meteohub,2013-11-27 16:53:00,
2013-11-27 09:59:00,29.8,18.9,30.40,SSW,203,8.0,14.0,63,0.00,,,0.00,meteohub,2013-11-27 16:59:00,
2013-11-27 10:05:00,30.6,19.4,30.39,South,172,10.0,14.0,63,0.00,,,0.00,meteohub,2013-11-27 17:05:00,
2013-11-27 10:11:00,31.3,19.8,30.39,SSW,195,12.0,15.0,62,0.00,,,0.00,meteohub,2013-11-27 17:11:00,
2013-11-27 10:17:00,31.5,19.9,30.39,SSW,198,8.0,15.0,62,0.00,,,0.00,meteohub,2013-11-27 17:17:00,
2013-11-27 10:23:00,31.8,19.9,30.39,SSW,192,13.0,15.0,61,0.00,,,0.00,meteohub,2013-11-27 17:23:00,
2013-11-27 10:29:00,32.2,19.4,30.38,SSW,194,7.0,15.0,59,0.00,,,0.00,meteohub,2013-11-27 17:29:00,
2013-11-27 10:35:00,32.4,19.9,30.38,South,180,12.0,15.0,60,0.00,,,0.00,meteohub,2013-11-27 17:35:00,
2013-11-27 10:41:00,32.4,19.9,30.38,South,187,7.0,15.0,60,0.00,,,0.00,meteohub,2013-11-27 17:41:00,
2013-11-27 10:47:00,32.5,20.1,30.37,South,191,12.0,15.0,60,0.00,,,0.00,meteohub,2013-11-27 17:47:00,
2013-11-27 10:53:00,32.7,19.9,30.37,SSW,197,11.0,15.0,59,0.00,,,0.00,meteohub,2013-11-27 17:53:00,
2013-11-27 10:59:00,32.7,20.3,30.36,SSW,197,7.0,15.0,60,0.00,,,0.00,meteohub,2013-11-27 17:59:00,
2013-11-27 11:05:00,32.7,19.9,30.36,South,183,9.0,19.0,59,0.00,,,0.00,meteohub,2013-11-27 18:05:00,
2013-11-27 11:11:00,33.3,20.5,30.35,South,190,7.0,19.0,59,0.00,,,0.00,meteohub,2013-11-27 18:11:00,
2013-11-27 11:17:00,33.3,20.5,30.35,South,174,10.0,19.0,59,0.00,,,0.00,meteohub,2013-11-27 18:17:00,
2013-11-27 11:23:00,33.1,20.3,30.35,South,190,13.0,16.0,59,0.00,,,0.00,meteohub,2013-11-27 18:23:00,
2013-11-27 11:29:00,33.1,20.7,30.34,South,181,11.0,16.0,60,0.00,,,0.00,meteohub,2013-11-27 18:29:00,
2013-11-27 11:35:00,33.1,20.7,30.34,South,185,9.0,17.0,60,0.00,,,0.00,meteohub,2013-11-27 18:35:00,
2013-11-27 11:41:00,32.9,20.1,30.33,SSW,201,7.0,17.0,59,0.00,,,0.00,meteohub,2013-11-27 18:41:00,
2013-11-27 11:47:00,33.1,20.3,30.33,South,189,12.0,18.0,59,0.00,,,0.00,meteohub,2013-11-27 18:47:00,
2013-11-27 11:53:00,33.3,20.8,30.32,South,189,9.0,18.0,60,0.00,,,0.00,meteohub,2013-11-27 18:53:00,
2013-11-27 11:59:00,33.3,20.5,30.33,South,182,15.0,18.0,59,0.00,,,0.00,meteohub,2013-11-27 18:59:00,
2013-11-27 12:05:00,33.4,20.3,30.33,South,186,14.0,18.0,58,0.00,,,0.00,meteohub,2013-11-27 19:05:00,
2013-11-27 12:11:00,33.3,20.5,30.32,South,183,7.0,18.0,59,0.00,,,0.00,meteohub,2013-11-27 19:11:00,
2013-11-27 12:17:00,33.4,20.3,30.32,SSW,197,7.0,18.0,58,0.00,,,0.00,meteohub,2013-11-27 19:17:00,
2013-11-27 12:24:00,33.6,20.5,30.32,South,189,11.0,18.0,58,0.00,,,0.00,meteohub,2013-11-27 19:24:00,
2013-11-27 12:30:00,34.0,20.8,30.31,South,185,11.0,16.0,58,0.00,,,0.00,meteohub,2013-11-27 19:30:00,
2013-11-27 12:36:00,34.3,20.7,30.31,South,187,9.0,16.0,57,0.01,,,0.01,meteohub,2013-11-27 19:36:00,
2013-11-27 12:42:00,34.7,20.7,30.31,SSW,201,9.0,16.0,56,0.01,,,0.01,meteohub,2013-11-27 19:42:00,
2013-11-27 12:48:00,34.9,20.8,30.30,South,185,13.0,15.0,56,0.01,,,0.01,meteohub,2013-11-27 19:48:00,
2013-11-27 12:54:00,35.1,20.5,30.30,South,187,8.0,16.0,55,0.01,,,0.01,meteohub,2013-11-27 19:54:00,
2013-11-27 13:00:00,35.1,20.1,30.30,SSW,193,15.0,17.0,54,0.01,,,0.01,meteohub,2013-11-27 20:00:00,
2013-11-27 13:06:00,35.1,20.5,30.30,SSW,193,4.0,18.0,55,0.01,,,0.01,meteohub,2013-11-27 20:06:00,
2013-11-27 13:12:00,35.2,20.3,30.29,SSW,195,8.0,18.0,54,0.01,,,0.01,meteohub,2013-11-27 20:12:00,
2013-11-27 13:18:00,35.2,20.7,30.29,South,186,10.0,18.0,55,0.01,,,0.01,meteohub,2013-11-27 20:18:00,
2013-11-27 13:24:00,35.2,20.3,30.28,SSW,194,4.0,17.0,54,0.01,,,0.01,meteohub,2013-11-27 20:24:00,
2013-11-27 13:30:00,35.4,20.5,30.28,SSW,197,12.0,17.0,54,0.01,,,0.01,meteohub,2013-11-27 20:30:00,
2013-11-27 13:36:00,35.8,20.3,30.27,SSW,202,9.0,14.0,53,0.00,,,0.01,meteohub,2013-11-27 20:36:00,
2013-11-27 13:42:00,35.8,20.3,30.27,South,184,11.0,14.0,53,0.00,,,0.01,meteohub,2013-11-27 20:42:00,
2013-11-27 13:48:00,35.8,19.9,30.27,SSW,199,9.0,15.0,52,0.00,,,0.01,meteohub,2013-11-27 20:48:00,
2013-11-27 13:54:00,35.8,20.3,30.27,SSW,205,9.0,15.0,53,0.00,,,0.01,meteohub,2013-11-27 20:54:00,
2013-11-27 14:00:00,35.4,20.5,30.26,South,175,15.0,15.0,54,0.00,,,0.01,meteohub,2013-11-27 21:00:00,
2013-11-27 14:06:00,35.1,20.1,30.26,SSW,198,7.0,15.0,54,0.00,,,0.01,meteohub,2013-11-27 21:06:00,
2013-11-27 14:12:00,35.1,20.5,30.26,SSW,195,6.0,16.0,55,0.00,,,0.01,meteohub,2013-11-27 21:12:00,
2013-11-27 14:18:00,35.1,20.5,30.25,South,186,10.0,16.0,55,0.00,,,0.01,meteohub,2013-11-27 21:18:00,
2013-11-27 14:24:00,35.2,20.3,30.25,SSW,195,11.0,16.0,54,0.00,,,0.01,meteohub,2013-11-27 21:24:00,
2013-11-27 14:30:00,35.4,20.5,30.25,South,189,8.0,14.0,54,0.00,,,0.01,meteohub,2013-11-27 21:30:00,
2013-11-27 14:36:00,36.0,20.1,30.25,South,185,10.0,13.0,52,0.00,,,0.01,meteohub,2013-11-27 21:36:00,
2013-11-27 14:42:00,36.3,20.3,30.25,South,188,8.0,15.0,52,0.00,,,0.01,meteohub,2013-11-27 21:42:00,
2013-11-27 14:48:00,36.3,20.3,30.25,South,189,9.0,15.0,52,0.00,,,0.01,meteohub,2013-11-27 21:48:00,
2013-11-27 14:54:00,36.7,20.3,30.25,South,187,10.0,13.0,51,0.00,,,0.01,meteohub,2013-11-27 21:54:00,
2013-11-27 15:00:00,36.5,20.5,30.25,SSW,196,9.0,12.0,52,0.00,,,0.01,meteohub,2013-11-27 22:00:00,
2013-11-27 15:06:00,36.9,20.5,30.25,South,181,8.0,12.0,51,0.00,,,0.01,meteohub,2013-11-27 22:06:00,
2013-11-27 15:12:00,37.2,20.8,30.25,SSW,199,7.0,11.0,51,0.00,,,0.01,meteohub,2013-11-27 22:12:00,
2013-11-27 15:18:00,37.8,21.2,30.25,South,191,7.0,11.0,51,0.00,,,0.01,meteohub,2013-11-27 22:18:00,
2013-11-27 15:24:00,38.1,20.7,30.25,South,191,5.0,10.0,49,0.00,,,0.01,meteohub,2013-11-27 22:24:00,
2013-11-27 15:30:00,38.1,20.1,30.25,SSW,201,3.0,8.0,48,0.00,,,0.01,meteohub,2013-11-27 22:30:00,
2013-11-27 15:36:00,37.8,20.3,30.25,SSW,196,6.0,8.0,49,0.00,,,0.01,meteohub,2013-11-27 22:36:00,
2013-11-27 15:42:00,37.8,20.3,30.25,SSW,193,4.0,9.0,49,0.00,,,0.01,meteohub,2013-11-27 22:42:00,
2013-11-27 15:48:00,37.6,19.6,30.24,SSW,193,5.0,10.0,48,0.00,,,0.01,meteohub,2013-11-27 22:48:00,
2013-11-27 15:54:00,37.2,19.8,30.24,SSW,193,2.0,10.0,49,0.00,,,0.01,meteohub,2013-11-27 22:54:00,
2013-11-27 16:01:00,36.7,19.8,30.24,SSW,193,4.0,8.0,50,0.00,,,0.01,meteohub,2013-11-27 23:01:00,
2013-11-27 16:07:00,36.0,19.6,30.25,SSW,193,2.0,6.0,51,0.00,,,0.01,meteohub,2013-11-27 23:07:00,
2013-11-27 16:12:00,35.2,19.4,30.25,SSW,193,2.0,6.0,52,0.00,,,0.01,meteohub,2013-11-27 23:12:00,
2013-11-27 16:19:00,34.3,19.4,30.25,SSW,193,2.0,5.0,54,0.00,,,0.01,meteohub,2013-11-27 23:19:00,
2013-11-27 16:25:00,33.4,19.4,30.25,SSW,193,2.0,5.0,56,0.00,,,0.01,meteohub,2013-11-27 23:25:00,
2013-11-27 16:31:00,32.9,19.8,30.25,SSW,193,1.0,5.0,58,0.00,,,0.01,meteohub,2013-11-27 23:31:00,
2013-11-27 16:37:00,32.4,19.6,30.25,SSW,193,0.0,5.0,59,0.00,,,0.01,meteohub,2013-11-27 23:37:00,
2013-11-27 16:43:00,31.8,20.3,30.25,SSW,193,0.0,4.0,62,0.00,,,0.01,meteohub,2013-11-27 23:43:00,
2013-11-27 16:49:00,31.3,20.1,30.25,SSW,193,0.0,3.0,63,0.00,,,0.01,meteohub,2013-11-27 23:49:00,
2013-11-27 16:55:00,30.9,20.5,30.25,SSW,193,1.0,1.0,65,0.00,,,0.01,meteohub,2013-11-27 23:55:00,
2013-11-27 17:01:00,30.9,20.5,30.25,SSW,193,2.0,5.0,65,0.00,,,0.01,meteohub,2013-11-28 00:01:00,
2013-11-27 17:07:00,30.9,20.8,30.25,SSW,193,1.0,5.0,66,0.00,,,0.01,meteohub,2013-11-28 00:07:00,
2013-11-27 17:13:00,30.7,20.7,30.25,SSW,193,1.0,5.0,66,0.00,,,0.01,meteohub,2013-11-28 00:13:00,
2013-11-27 17:19:00,30.6,20.8,30.25,SSW,193,0.0,3.0,67,0.00,,,0.01,meteohub,2013-11-28 00:19:00,
2013-11-27 17:25:00,30.2,20.5,30.26,SSW,193,0.0,3.0,67,0.00,,,0.01,meteohub,2013-11-28 00:25:00,
2013-11-27 17:31:00,29.8,20.3,30.26,SSW,193,0.0,2.0,67,0.00,,,0.01,meteohub,2013-11-28 00:31:00,
2013-11-27 17:37:00,29.1,20.3,30.26,SSW,193,2.0,2.0,69,0.00,,,0.01,meteohub,2013-11-28 00:37:00,
2013-11-27 17:43:00,28.8,20.8,30.26,SSW,193,2.0,3.0,72,0.00,,,0.01,meteohub,2013-11-28 00:43:00,
2013-11-27 17:49:00,28.8,21.9,30.26,SSW,193,0.0,4.0,75,0.00,,,0.01,meteohub,2013-11-28 00:49:00,
2013-11-27 17:55:00,28.9,21.7,30.26,SSW,193,0.0,4.0,74,0.00,,,0.01,meteohub,2013-11-28 00:55:00,
2013-11-27 18:01:00,28.9,21.7,30.27,SSW,193,0.0,2.0,74,0.00,,,0.01,meteohub,2013-11-28 01:01:00,
2013-11-27 18:07:00,28.9,21.7,30.27,SSW,193,0.0,0.0,74,0.00,,,0.01,meteohub,2013-11-28 01:07:00,
2013-11-27 18:13:00,28.9,21.7,30.27,SSW,193,0.0,1.0,74,0.00,,,0.01,meteohub,2013-11-28 01:13:00,
2013-11-27 18:19:00,28.8,21.9,30.27,SSW,193,0.0,1.0,75,0.00,,,0.01,meteohub,2013-11-28 01:19:00,
2013-11-27 18:25:00,28.6,21.9,30.26,SSW,193,0.0,0.0,76,0.00,,,0.01,meteohub,2013-11-28 01:25:00,
2013-11-27 18:31:00,28.6,21.9,30.26,SSW,193,0.0,0.0,76,0.00,,,0.01,meteohub,2013-11-28 01:31:00,
2013-11-27 18:37:00,28.4,21.7,30.26,SSW,193,1.0,0.0,76,0.00,,,0.01,meteohub,2013-11-28 01:37:00,
2013-11-27 18:43:00,28.0,21.4,30.26,SSW,193,2.0,2.0,76,0.00,,,0.01,meteohub,2013-11-28 01:43:00,
2013-11-27 18:49:00,27.9,21.6,30.26,SSW,193,0.0,2.0,77,0.00,,,0.01,meteohub,2013-11-28 01:49:00,
2013-11-27 18:55:00,27.7,22.1,30.26,SSW,193,0.0,2.0,79,0.00,,,0.01,meteohub,2013-11-28 01:55:00,
2013-11-27 19:01:00,27.9,21.9,30.26,SSW,193,0.0,0.0,78,0.00,,,0.01,meteohub,2013-11-28 02:01:00,
2013-11-27 19:07:00,28.0,21.4,30.26,SSW,193,0.0,0.0,76,0.00,,,0.01,meteohub,2013-11-28 02:07:00,
2013-11-27 19:13:00,28.2,21.4,30.27,SSW,193,1.0,2.0,75,0.00,,,0.01,meteohub,2013-11-28 02:13:00,
2013-11-27 19:19:00,28.4,20.8,30.27,SSW,193,0.0,2.0,73,0.00,,,0.01,meteohub,2013-11-28 02:19:00,
2013-11-27 19:25:00,28.2,20.7,30.26,SSW,193,0.0,2.0,73,0.00,,,0.01,meteohub,2013-11-28 02:25:00,
2013-11-27 19:31:00,28.6,20.7,30.27,SSW,193,0.0,2.0,72,0.00,,,0.01,meteohub,2013-11-28 02:31:00,
2013-11-27 19:38:00,28.9,20.7,30.27,SSW,193,0.0,0.0,71,0.00,,,0.01,meteohub,2013-11-28 02:38:00,
2013-11-27 19:44:00,28.9,20.5,30.27,SSW,193,0.0,2.0,70,0.00,,,0.01,meteohub,2013-11-28 02:44:00,
2013-11-27 19:50:00,28.8,19.9,30.27,SSW,193,0.0,2.0,69,0.00,,,0.01,meteohub,2013-11-28 02:50:00,
2013-11-27 19:56:00,28.8,20.5,30.27,SSW,193,0.0,0.0,71,0.00,,,0.01,meteohub,2013-11-28 02:56:00,
2013-11-27 20:02:00,28.6,19.8,30.27,SSW,193,2.0,0.0,69,0.00,,,0.01,meteohub,2013-11-28 03:02:00,
2013-11-27 20:08:00,28.2,19.8,30.27,SSW,193,2.0,3.0,70,0.00,,,0.01,meteohub,2013-11-28 03:08:00,
2013-11-27 20:14:00,28.2,19.4,30.27,SSW,193,2.0,5.0,69,0.00,,,0.01,meteohub,2013-11-28 03:14:00,
2013-11-27 20:20:00,28.2,19.4,30.27,SSW,193,2.0,5.0,69,0.00,,,0.01,meteohub,2013-11-28 03:20:00,
2013-11-27 20:26:00,28.2,19.8,30.27,SSW,193,2.0,4.0,70,0.00,,,0.01,meteohub,2013-11-28 03:26:00,
2013-11-27 20:32:00,28.2,19.8,30.27,SSW,193,2.0,4.0,70,0.00,,,0.01,meteohub,2013-11-28 03:32:00,
2013-11-27 20:38:00,28.6,19.8,30.27,SSW,193,2.0,4.0,69,0.00,,,0.01,meteohub,2013-11-28 03:38:00,
2013-11-27 20:44:00,28.4,19.6,30.27,SSW,193,0.0,4.0,69,0.00,,,0.01,meteohub,2013-11-28 03:44:00,
2013-11-27 20:50:00,28.4,19.9,30.28,SSW,193,0.0,4.0,70,0.00,,,0.01,meteohub,2013-11-28 03:50:00,
2013-11-27 20:56:00,28.2,19.4,30.28,SSW,193,0.0,2.0,69,0.00,,,0.01,meteohub,2013-11-28 03:56:00,
2013-11-27 21:02:00,27.9,19.4,30.28,SSW,193,0.0,3.0,70,0.00,,,0.01,meteohub,2013-11-28 04:02:00,
2013-11-27 21:08:00,27.3,19.6,30.28,SSW,193,0.0,3.0,72,0.00,,,0.01,meteohub,2013-11-28 04:08:00,
2013-11-27 21:14:00,27.0,19.4,30.29,SSW,193,0.0,3.0,73,0.00,,,0.01,meteohub,2013-11-28 04:14:00,
2013-11-27 21:20:00,26.4,19.2,30.29,SSW,193,0.0,2.0,74,0.00,,,0.01,meteohub,2013-11-28 04:20:00,
2013-11-27 21:26:00,26.1,19.2,30.29,SSW,193,0.0,0.0,75,0.00,,,0.01,meteohub,2013-11-28 04:26:00,
2013-11-27 21:32:00,25.7,18.9,30.29,SSW,193,2.0,3.0,75,0.00,,,0.01,meteohub,2013-11-28 04:32:00,
2013-11-27 21:38:00,25.3,18.5,30.29,SSW,193,3.0,4.0,75,0.00,,,0.01,meteohub,2013-11-28 04:38:00,
2013-11-27 21:44:00,25.2,19.0,30.29,SSW,193,0.0,4.0,77,0.00,,,0.01,meteohub,2013-11-28 04:44:00,
2013-11-27 21:50:00,25.2,18.7,30.29,SSW,193,2.0,3.0,76,0.00,,,0.01,meteohub,2013-11-28 04:50:00,
2013-11-27 21:56:00,25.2,19.0,30.29,SSW,193,0.0,3.0,77,0.00,,,0.01,meteohub,2013-11-28 04:56:00,
2013-11-27 22:02:00,25.0,19.0,30.29,SSW,193,0.0,2.0,78,0.00,,,0.01,meteohub,2013-11-28 05:02:00,
2013-11-27 22:05:00,25.2,19.6,30.29,SSW,193,0.0,2.0,79,0.00,,,0.01,meteohub,2013-11-28 05:05:00,
2013-11-27 22:11:00,25.2,19.2,30.29,SSW,193,0.0,1.0,78,0.00,,,0.01,meteohub,2013-11-28 05:11:00,
2013-11-27 22:12:00,25.2,19.2,30.29,SSW,193,0.0,1.0,78,0.00,,,0.01,meteohub,2013-11-28 05:12:00,
2013-11-27 22:17:00,25.2,19.0,30.29,SSW,193,0.0,0.0,77,0.00,,,0.01,meteohub,2013-11-28 05:17:00,
2013-11-27 22:23:00,25.3,19.2,30.29,SSW,193,0.0,0.0,77,0.00,,,0.01,meteohub,2013-11-28 05:23:00,
2013-11-27 22:29:00,25.0,19.0,30.29,SSW,193,0.0,0.0,78,0.00,,,0.01,meteohub,2013-11-28 05:29:00,
2013-11-27 22:35:00,25.0,19.0,30.29,SSW,193,0.0,0.0,78,0.00,,,0.01,meteohub,2013-11-28 05:35:00,
2013-11-27 22:41:00,25.0,19.0,30.29,SSW,193,1.0,2.0,78,0.00,,,0.01,meteohub,2013-11-28 05:41:00,
2013-11-27 22:47:00,25.0,19.0,30.30,SSW,193,0.0,2.0,78,0.00,,,0.01,meteohub,2013-11-28 05:47:00,
2013-11-27 22:53:00,25.0,19.0,30.30,SSW,193,0.0,2.0,78,0.00,,,0.01,meteohub,2013-11-28 05:53:00,
2013-11-27 22:59:00,24.6,18.5,30.30,SSW,193,0.0,2.0,77,0.00,,,0.01,meteohub,2013-11-28 05:59:00,
2013-11-27 23:05:00,24.4,18.3,30.30,SSW,193,0.0,0.0,77,0.00,,,0.01,meteohub,2013-11-28 06:05:00,
2013-11-27 23:11:00,24.3,18.3,30.30,SSW,193,2.0,2.0,78,0.00,,,0.01,meteohub,2013-11-28 06:11:00,
2013-11-27 23:17:00,24.3,18.7,30.30,SSW,193,1.0,3.0,79,0.00,,,0.01,meteohub,2013-11-28 06:17:00,
2013-11-27 23:24:00,24.3,19.0,30.29,SSW,193,0.0,3.0,80,0.00,,,0.01,meteohub,2013-11-28 06:24:00,
2013-11-27 23:30:00,24.3,18.7,30.29,SSW,193,0.0,3.0,79,0.00,,,0.01,meteohub,2013-11-28 06:30:00,
2013-11-27 23:36:00,24.4,18.9,30.29,SSW,193,0.0,0.0,79,0.00,,,0.01,meteohub,2013-11-28 06:36:00,
2013-11-27 23:42:00,24.8,19.2,30.29,SSW,193,0.0,0.0,79,0.00,,,0.01,meteohub,2013-11-28 06:42:00,
2013-11-27 23:48:00,25.0,18.9,30.29,SSW,193,0.0,0.0,77,0.00,,,0.01,meteohub,2013-11-28 06:48:00,
2013-11-27 23:54:00,25.2,19.0,30.29,SSW,193,1.0,0.0,77,0.00,,,0.01,meteohub,2013-11-28 06:54:00,